Satellite: HRBE Catalog number: 37855 Epoch time: 14198.61163727 Element set: 852 Inclination: 101.7161 deg RA of node: 244.0543 deg Eccentricity: 0.0215232 Arg of perigee: 327.1357 deg Mean anomaly: 155.0849 deg Mean motion: 14.90428058 rev/day Decay rate: 1.982e-05 rev/day^2 Epoch rev: 14721 Checksum: 297
Satellite: RS-39 Catalog number: 38051 Epoch time: 14198.82716525 Element set: 729 Inclination: 051.6251 deg RA of node: 068.1013 deg Eccentricity: 0.0003427 Arg of perigee: 275.7267 deg Mean anomaly: 166.1540 deg Mean motion: 15.64540355 rev/day Decay rate: 4.4837e-04 rev/day^2 Epoch rev: 13890 Checksum: 313
Satellite: E-STAR Catalog number: 38079 Epoch time: 14198.83704981 Element set: 909 Inclination: 069.4512 deg RA of node: 270.5481 deg Eccentricity: 0.0356388 Arg of perigee: 310.3273 deg Mean anomaly: 161.5630 deg Mean motion: 15.13106739 rev/day Decay rate: 4.6865e-04 rev/day^2 Epoch rev: 12809 Checksum: 329
Satellite: GOLIAT Catalog number: 38085 Epoch time: 14198.59573552 Element set: 201 Inclination: 069.4554 deg RA of node: 279.0123 deg Eccentricity: 0.0380536 Arg of perigee: 314.7272 deg Mean anomaly: 042.3472 deg Mean motion: 15.06839416 rev/day Decay rate: 4.2680e-04 rev/day^2 Epoch rev: 12785 Checksum: 314
Satellite: HORYU-2 Catalog number: 38340 Epoch time: 14198.80167962 Element set: 911 Inclination: 098.2635 deg RA of node: 156.5214 deg Eccentricity: 0.0013416 Arg of perigee: 079.8571 deg Mean anomaly: 280.4172 deg Mean motion: 14.72616862 rev/day Decay rate: 1.159e-05 rev/day^2 Epoch rev: 11630 Checksum: 305
Satellite: RS-40 Catalog number: 38735 Epoch time: 14198.72085552 Element set: 624 Inclination: 082.4771 deg RA of node: 268.5040 deg Eccentricity: 0.0017024 Arg of perigee: 184.3563 deg Mean anomaly: 175.7367 deg Mean motion: 12.42560731 rev/day Decay rate: 2.4e-07 rev/day^2 Epoch rev: 8937 Checksum: 308
Satellite: PROITERES Catalog number: 38756 Epoch time: 14198.78622955 Element set: 23 Inclination: 098.2287 deg RA of node: 287.5819 deg Eccentricity: 0.0011155 Arg of perigee: 285.8960 deg Mean anomaly: 074.1019 deg Mean motion: 14.75009738 rev/day Decay rate: 1.66e-06 rev/day^2 Epoch rev: 9968 Checksum: 348
Satellite: BEESAT-3 Catalog number: 39134 Epoch time: 14198.87541372 Element set: 645 Inclination: 064.8720 deg RA of node: 041.4008 deg Eccentricity: 0.0029850 Arg of perigee: 302.8075 deg Mean anomaly: 057.0168 deg Mean motion: 15.05590693 rev/day Decay rate: 4.145e-05 rev/day^2 Epoch rev: 6828 Checksum: 308
Satellite: BEESAT-2 Catalog number: 39136 Epoch time: 14198.88572327 Element set: 628 Inclination: 064.8724 deg RA of node: 041.9404 deg Eccentricity: 0.0029748 Arg of perigee: 302.2746 deg Mean anomaly: 057.5488 deg Mean motion: 15.04940474 rev/day Decay rate: 3.623e-05 rev/day^2 Epoch rev: 6827 Checksum: 333
Satellite: LO-75 Catalog number: 39382 Epoch time: 14198.61934248 Element set: 322 Inclination: 040.4953 deg RA of node: 270.7329 deg Eccentricity: 0.0020881 Arg of perigee: 101.2287 deg Mean anomaly: 259.0172 deg Mean motion: 15.48649901 rev/day Decay rate: 6.3252e-04 rev/day^2 Epoch rev: 3677 Checksum: 321
Satellite: ZACUBE-1 Catalog number: 39417 Epoch time: 14198.76904744 Element set: 352 Inclination: 097.7747 deg RA of node: 268.3408 deg Eccentricity: 0.0062894 Arg of perigee: 143.0123 deg Mean anomaly: 217.5432 deg Mean motion: 14.78191004 rev/day Decay rate: 1.093e-05 rev/day^2 Epoch rev: 3521 Checksum: 306
Satellite: TRITON-1 Catalog number: 39427 Epoch time: 14198.43552688 Element set: 205 Inclination: 097.7598 deg RA of node: 263.2210 deg Eccentricity: 0.0118422 Arg of perigee: 153.6934 deg Mean anomaly: 207.0264 deg Mean motion: 14.65467048 rev/day Decay rate: 1.726e-05 rev/day^2 Epoch rev: 3482 Checksum: 315
Satellite: DELFIN3XT Catalog number: 39428 Epoch time: 14198.40160870 Element set: 207 Inclination: 097.7585 deg RA of node: 262.3329 deg Eccentricity: 0.0128961 Arg of perigee: 155.8365 deg Mean anomaly: 204.8879 deg Mean motion: 14.63412723 rev/day Decay rate: 2.771e-05 rev/day^2 Epoch rev: 3475 Checksum: 330
Satellite: GOMX-1 Catalog number: 39430 Epoch time: 14198.73360541 Element set: 647 Inclination: 097.7542 deg RA of node: 260.3364 deg Eccentricity: 0.0156783 Arg of perigee: 161.4719 deg Mean anomaly: 199.2271 deg Mean motion: 14.56896998 rev/day Decay rate: 1.432e-05 rev/day^2 Epoch rev: 3466 Checksum: 340
Satellite: MO-76 Catalog number: 39436 Epoch time: 14198.17868754 Element set: 269 Inclination: 097.7766 deg RA of node: 271.3384 deg Eccentricity: 0.0027607 Arg of perigee: 148.3200 deg Mean anomaly: 211.9366 deg Mean motion: 14.90741265 rev/day Decay rate: 9.484e-05 rev/day^2 Epoch rev: 3534 Checksum: 350
Satellite: LO-74 Catalog number: 39440 Epoch time: 14197.74777674 Element set: 203 Inclination: 097.7698 deg RA of node: 265.4591 deg Eccentricity: 0.0084711 Arg of perigee: 149.2187 deg Mean anomaly: 211.4020 deg Mean motion: 14.73135606 rev/day Decay rate: 2.009e-05 rev/day^2 Epoch rev: 3493 Checksum: 323
Satellite: PUCPSAT-1 Catalog number: 39442 Epoch time: 14198.12933209 Element set: 201 Inclination: 097.7794 deg RA of node: 270.6552 deg Eccentricity: 0.0034901 Arg of perigee: 145.1802 deg Mean anomaly: 215.1695 deg Mean motion: 14.86215269 rev/day Decay rate: 3.030e-05 rev/day^2 Epoch rev: 3407 Checksum: 288
Satellite: LO-78 Catalog number: 39569 Epoch time: 14198.70883156 Element set: 430 Inclination: 051.6336 deg RA of node: 287.6597 deg Eccentricity: 0.0012645 Arg of perigee: 339.9246 deg Mean anomaly: 146.5185 deg Mean motion: 16.03659828 rev/day Decay rate: 6.60800e-03 rev/day^2 Epoch rev: 2188 Checksum: 361
Satellite: SHINAISAT Catalog number: 39572 Epoch time: 14198.57860125 Element set: 193 Inclination: 065.0082 deg RA of node: 297.2610 deg Eccentricity: 0.0019159 Arg of perigee: 285.1957 deg Mean anomaly: 074.7075 deg Mean motion: 15.72115077 rev/day Decay rate: 3.6857e-04 rev/day^2 Epoch rev: 2188 Checksum: 327
Satellite: OPUSAT Catalog number: 39575 Epoch time: 14198.75045642 Element set: 271 Inclination: 064.9917 deg RA of node: 287.0529 deg Eccentricity: 0.0020589 Arg of perigee: 296.3125 deg Mean anomaly: 063.5934 deg Mean motion: 16.15116044 rev/day Decay rate: 8.63456e-03 rev/day^2 Epoch rev: 2209 Checksum: 326
Satellite: TEIKYOSAT Catalog number: 39576 Epoch time: 14198.53335881 Element set: 197 Inclination: 065.0079 deg RA of node: 295.5393 deg Eccentricity: 0.0020345 Arg of perigee: 299.9091 deg Mean anomaly: 060.0041 deg Mean motion: 15.76698450 rev/day Decay rate: 5.9340e-04 rev/day^2 Epoch rev: 2191 Checksum: 325
Satellite: CO-77 Catalog number: 39577 Epoch time: 14198.53783991 Element set: 214 Inclination: 065.0103 deg RA of node: 291.8605 deg Eccentricity: 0.0021163 Arg of perigee: 297.8131 deg Mean anomaly: 062.0883 deg Mean motion: 15.88851866 rev/day Decay rate: 1.28566e-03 rev/day^2 Epoch rev: 2198 Checksum: 348
Satellite: STARS-II Catalog number: 39579 Epoch time: 14116.06110564 Element set: 132 Inclination: 064.9886 deg RA of node: 219.0071 deg Eccentricity: 0.0013010 Arg of perigee: 293.8065 deg Mean anomaly: 069.6132 deg Mean motion: 16.44611049 rev/day Decay rate: 2.0186783e-01 rev/day^2 Epoch rev: 902 Checksum: 288
Satellite: SPROUT Catalog number: 39770 Epoch time: 14198.84154425 Element set: 68 Inclination: 097.8725 deg RA of node: 295.5261 deg Eccentricity: 0.0009071 Arg of perigee: 205.5390 deg Mean anomaly: 154.5375 deg Mean motion: 14.82655877 rev/day Decay rate: 8.40e-06 rev/day^2 Epoch rev: 808 Checksum: 325
Satellite: POPSAT-HIP1 Catalog number: 40028 Epoch time: 14198.80697392 Element set: 77 Inclination: 097.9844 deg RA of node: 093.5017 deg Eccentricity: 0.0013760 Arg of perigee: 190.2856 deg Mean anomaly: 169.8067 deg Mean motion: 14.85108469 rev/day Decay rate: 1.551e-05 rev/day^2 Epoch rev: 412 Checksum: 321
Satellite: EO-80 Catalog number: 40032 Epoch time: 14198.67652011 Element set: 75 Inclination: 097.9806 deg RA of node: 093.3486 deg Eccentricity: 0.0012128 Arg of perigee: 184.5913 deg Mean anomaly: 175.5183 deg Mean motion: 14.84878817 rev/day Decay rate: 1.556e-05 rev/day^2 Epoch rev: 411 Checksum: 315
Satellite: VELOX-1 Catalog number: 40057 Epoch time: 14198.80545661 Element set: 64 Inclination: 098.2524 deg RA of node: 266.2613 deg Eccentricity: 0.0010617 Arg of perigee: 220.3727 deg Mean anomaly: 139.6649 deg Mean motion: 14.73986229 rev/day Decay rate: 1.964e-05 rev/day^2 Epoch rev: 259 Checksum: 313
Satellite: DAURIA DX 1 Catalog number: 40071 Epoch time: 14198.79139338 Element set: 32 Inclination: 098.4040 deg RA of node: 250.8058 deg Eccentricity: 0.0007530 Arg of perigee: 226.3416 deg Mean anomaly: 133.7156 deg Mean motion: 14.79508211 rev/day Decay rate: 8.23e-06 rev/day^2 Epoch rev: 133 Checksum: 269
Satellite: OBJECT F Catalog number: 40074 Epoch time: 14198.78618816 Element set: 35 Inclination: 098.4042 deg RA of node: 250.8155 deg Eccentricity: 0.0003756 Arg of perigee: 229.8418 deg Mean anomaly: 130.2423 deg Mean motion: 14.80372770 rev/day Decay rate: 1.727e-05 rev/day^2 Epoch rev: 133 Checksum: 285
Satellite: OBJECT G Catalog number: 40075 Epoch time: 14198.98894191 Element set: 36 Inclination: 098.4032 deg RA of node: 251.0258 deg Eccentricity: 0.0004591 Arg of perigee: 252.7773 deg Mean anomaly: 107.2932 deg Mean motion: 14.80367696 rev/day Decay rate: 8.26e-06 rev/day^2 Epoch rev: 136 Checksum: 307
/EX
participants (1)
-
Ray Hoad